Location: Kawakawa
(35.3830°S, 174.0670°E)
Time: 02:25:22
(UTC+12:00)

BREEZE-M DEB (TANK) - Pass Details

Date: 15 August 2020
Orbit: 310 x 16785 km, 49.5° (Epoch: 19 September)

Event Time Altitude Azimuth Distance (km) Brightness Sun altitude
Rises 18:29:15 0° 234° (SW) 2,081 6.0 -8.2°
Reaches altitude 10° 18:30:50 10° 236° (WSW) 1,242 4.8 -8.5°
Maximum altitude 18:33:03 71° 321° (NW) 422 1.9 -9.0°
Drops below altitude 10° 18:37:02 10° 46° (NE) 2,213 5.1 -9.8°
Sets 18:40:58 0° 47° (NE) 4,195 6.4 -10.5°
